Location: Claremont
(33.9858°S, 18.4575°E)
Time: 20:58:30
(UTC+00:00)

Cosmos 1908 Rocket - Pass Details

Date: 03 March 2021
Orbit: 606 x 632 km, 82.5° (Epoch: 20 April)

Event Time Altitude Azimuth Distance (km) Brightness Sun altitude
Rises 18:55:24 0° 182° (S) 2,951 7.4 -19.9°
Reaches altitude 10° 18:57:41 10° 178° (S) 2,038 6.5 -20.3°
Maximum altitude 19:02:09 59° 98° (E) 738 3.6 -21.2°
Enters shadow 19:02:31 57° 75° (ENE) 753 3.6 -21.3°
